Tracking 30995 objects as of 5-Jul-2025
HD Live streaming from Space Station
objects crossing your sky now

DELTA 1 R/B

Track DELTA 1 R/B now!
10-day predictions


NORAD ID: 3670
Int'l Code: 1969-009B
Perigee: 583.1 km
Apogee: 3,291.9 km
Inclination: 88.4 °
Period: 125.6 minutes
Semi major axis: 8308 km
RCS: 0.5955 m2 (medium)
Launch date: January 30, 1969
Source: United States (US)
Launch site: AIR FORCE WESTERN TEST RANGE (AFWTR)

Note: This is a ROCKET BODY
Your satellite tracking list
NOAA 16 DEB
Track 1 satellite(s)




NASA's NSSDC Master Catalog

Two Line Element Set (TLE):
1  3670U 69009B   25186.26345907  .00000163  00000-0  11430-3 0  9990
2  3670  88.4404 144.9645 1630145 285.9223  56.8675 11.46360233339809
Source of the keplerian elements: AFSPC